Regional Weather Roundup
Issued by NWS

Home | Current Version | Previous Version | Text Only | Print | Product List | Glossary On
Versions: 1 2 3 4 5 6 7 8 9 10 11 12 13 14 15 16 17 18 19 20 21 22 23 24 25 26 27 28 29 30 31 32 33 34 35 36 37 38 39 40 41 42 43 44 45 46 47 48 49 50
000
ASUS44 KMEG 032000
RWRTN
TENNESSEE HOURLY STATE WEATHER ROUNDUP
NATIONAL WEATHER SERVICE MEMPHIS TN
300 PM CDT SUN MAY 03 2015

TNZ002-004-019-021-049-052-054-088>092-032100-
WEST TENNESSEE

CITY           SKY/WX    TMP DP  RH WIND       PRES   REMARKS
MEMPHIS INTL   PTSUNNY   82  49  31 VRB3      30.07F
NWS MEMPHIS      N/A    N/A N/A N/A MISG        N/A
JACKSON        SUNNY     80  47  31 VRB7      30.08F
DYERSBURG      MOSUNNY   81  41  24 SW9       30.08F
PARIS          SUNNY     77  48  36 S12       30.08F
$$

TNZ008-025-027-028-033-062-065-066-032100-
NORTH MIDDLE TENNESSEE

CITY           SKY/WX    TMP DP  RH WIND       PRES   REMARKS
NASHVILLE      PTSUNNY   81  49  32 SW8       30.10F
CLARKSVILLE    MOSUNNY   78  47  33 SW8       30.08F
COOKEVILLE     MOSUNNY   79  54  41 S6        30.11F
CROSSVILLE     PTSUNNY   74  45  35 S9        30.15F
$$

TNZ061-075-076-078-094-096-097-032100-
SOUTH MIDDLE TENNESSEE

CITY           SKY/WX    TMP DP  RH WIND       PRES   REMARKS
WINCHESTER     SUNNY     79  45  29 SW8       30.13F
COLUMBIA       SUNNY     79  52  38 SW13      30.09F
SHELBYVILLE    SUNNY     79  54  41 S6        30.12F
$$

TNZ017-018-042-046-047-032100-
NORTHEAST TENNESSEE

CITY           SKY/WX    TMP DP  RH WIND       PRES   REMARKS
TRI CITIES     MOSUNNY   78  40  25 VRB5      30.14F
ELIZABETHTON   CLEAR     75  45  33 VRB5      30.14S
$$

TNZ012-013-036-069-073-074-032100-
CENTRAL EAST TENNESSEE

CITY           SKY/WX    TMP DP  RH WIND       PRES   REMARKS
KNOXVILLE      MOSUNNY   77  44  30 W8        30.12F
OAK RIDGE      SUNNY     80  43  26 VRB6      30.14F
GATLINBURG     CLEAR     79  45  29 VRB5      30.11F
$$

TNZ083-085-099-032100-
SOUTHEAST TENNESSEE

CITY           SKY/WX    TMP DP  RH WIND       PRES   REMARKS
CHATTANOOGA    MOSUNNY   79  47  32 SE9       30.12F
$$

SKY/WX REPORTED AS FAIR MEANS FEW OR NO CLOUDS BELOW
12 THOUSAND FEET.



USA.gov is the U.S. government's official web portal to all federal, state and local government web resources and services.